This demonstration page uses our WeatherBlox Daily Observations layout. Learn more.

Left ArrowRight Arrow

53.62937, 11.41316

Hourly Observations for December 27, 2021

Temp ( °F °C ) Dew Point ( °F °C ) Humidity (%) Winds ( mph kmh ) Pressure ( in mb ) Visibility ( mi km ) Precip ( " mm )
12:20 am 00:20 Mostly Clear 14 -10 7 -14 73 73 VRB 1 2 29.83 1010 30 48 N/A
12:50 am 00:50 Mostly Clear 19 -7 7 -14 58 58 VRB 2 4 29.83 1010 30 48 N/A
1:20 am 01:20 Mostly Clear 19 -7 7 -14 58 58 ESE 3 6 29.83 1010 30 48 N/A
1:50 am 01:50 Mostly Clear 19 -7 7 -14 58 58 E 3 6 29.80 1009 30 48 N/A
2:20 am 02:20 Mostly Clear 18 -8 9 -13 68 68 VRB 2 4 29.80 1009 30 48 N/A
2:50 am 02:50 Mostly Clear 18 -8 9 -13 68 68 VRB 2 4 29.80 1009 30 48 N/A
3:20 am 03:20 Partly Cloudy 19 -7 9 -13 63 63 ESE 5 7 29.80 1009 30 48 N/A
3:50 am 03:50 Partly Cloudy 19 -7 10 -12 68 68 ESE 6 9 29.77 1008 30 48 N/A
4:20 am 04:20 Mostly Clear 19 -7 10 -12 68 68 ESE 6 9 29.77 1008 30 48 N/A
4:50 am 04:50 Mostly Cloudy 21 -6 10 -12 63 63 ESE 7 11 29.77 1008 30 48 N/A
5:20 am 05:20 Mostly Cloudy 21 -6 10 -12 63 63 ESE 7 11 29.74 1007 30 48 N/A
5:50 am 05:50 Mostly Cloudy 21 -6 10 -12 63 63 ESE 7 11 29.74 1007 30 48 N/A
6:20 am 06:20 Mostly Clear 21 -6 12 -11 68 68 ESE 8 13 29.74 1007 7 11 N/A
7:20 am 07:20 Mostly Clear 21 -6 12 -11 68 68 ESE 7 11 29.71 1006 30 48 N/A
7:50 am 07:50 Mostly Clear 21 -6 14 -10 74 74 ESE 8 13 29.71 1006 30 48 N/A
8:20 am 08:20 Mostly Cloudy 23 -5 14 -10 68 68 ESE 9 15 29.71 1006 30 48 N/A
8:50 am 08:50 Mostly Cloudy with Light Freezing Rain 23 -5 16 -9 74 74 ESE 9 15 29.71 1006 30 48 N/A
9:20 am 09:20 Mostly Cloudy 23 -5 16 -9 74 74 ESE 9 15 29.71 1006 30 48 N/A
9:50 am 09:50 Cloudy 23 -5 16 -9 74 74 ESE 8 13 29.71 1006 30 48 N/A
10:20 am 10:20 Mostly Cloudy 23 -5 18 -8 80 80 ESE 8 13 29.71 1006 30 48 N/A
10:50 am 10:50 Mostly Cloudy 25 -4 18 -8 74 74 ESE 8 13 29.71 1006 30 48 N/A
11:20 am 11:20 Mostly Cloudy 25 -4 19 -7 80 80 ESE 7 11 29.68 1005 30 48 N/A
11:50 am 11:50 Cloudy 25 -4 19 -7 80 80 ESE 7 11 29.68 1005 30 48 N/A
12:20 pm 12:20 Cloudy 27 -3 19 -7 74 74 ESE 7 11 29.68 1005 30 48 N/A
12:50 pm 12:50 Mostly Cloudy 27 -3 21 -6 80 80 ESE 8 13 29.65 1004 30 48 N/A
1:20 pm 13:20 Cloudy 27 -3 21 -6 80 80 ESE 7 11 29.65 1004 30 48 N/A
1:50 pm 13:50 Mostly Cloudy 28 -2 23 -5 80 80 ESE 7 11 29.65 1004 30 48 N/A
2:20 pm 14:20 Cloudy 28 -2 23 -5 80 80 SE 8 13 29.65 1004 30 48 N/A
2:50 pm 14:50 Mostly Cloudy 28 -2 23 -5 80 80 SE 7 11 29.65 1004 30 48 N/A
3:20 pm 15:20 Mostly Cloudy 28 -2 25 -4 86 86 ESE 8 13 29.62 1003 30 48 N/A
3:50 pm 15:50 Mostly Cloudy 28 -2 25 -4 86 86 SE 7 11 29.62 1003 30 48 N/A
4:20 pm 16:20 Cloudy 30 -1 25 -4 80 80 SE 7 11 29.62 1003 30 48 N/A
5:20 pm 17:20 Mostly Cloudy 30 -1 27 -3 86 86 SE 7 11 29.62 1003 30 48 N/A
5:50 pm 17:50 Mostly Cloudy 30 -1 27 -3 86 86 SE 8 13 29.62 1003 30 48 N/A
6:20 pm 18:20 Mostly Cloudy with Light Freezing Rain 30 -1 27 -3 86 86 SE 9 15 29.62 1003 30 48 N/A
6:50 pm 18:50 Mostly Cloudy 30 -1 27 -3 86 86 SE 9 15 29.62 1003 30 48 N/A
7:20 pm 19:20 Mostly Cloudy 30 -1 28 -2 93 93 SE 8 13 29.62 1003 30 48 N/A
7:50 pm 19:50 Mostly Cloudy 32 0 28 -2 87 87 SE 7 11 29.62 1003 30 48 N/A
8:20 pm 20:20 Mostly Cloudy 32 0 28 -2 87 87 SE 7 11 29.59 1002 30 48 N/A
8:50 pm 20:50 Mostly Cloudy 32 0 28 -2 87 87 SE 8 13 29.59 1002 30 48 N/A
9:20 pm 21:20 Mostly Cloudy 32 0 28 -2 87 87 SE 9 15 29.59 1002 30 48 N/A
9:50 pm 21:50 Mostly Cloudy 32 0 28 -2 87 87 SE 8 13 29.59 1002 30 48 N/A
10:20 pm 22:20 Mostly Cloudy 32 0 28 -2 87 87 SE 9 15 29.59 1002 30 48 N/A
10:50 pm 22:50 Mostly Cloudy 32 0 28 -2 87 87 SE 8 13 29.59 1002 30 48 N/A
11:20 pm 23:20 Mostly Cloudy 32 0 28 -2 87 87 SE 7 11 29.56 1001 30 48 N/A
11:50 pm 23:50 Mostly Cloudy 32 0 28 -2 87 87 SE 9 15 29.56 1001 30 48 N/A

Powered by AerisWeather